Estación Meteorológica Peña el Pijo (Robertgarden) [ 07/23/19 00:27:22 CEST ]

Fecha Hora Presion(HPa) Temp (°C) Humedad % Rocio (°C) Viento ( m/s) Direccion Lluvia 1Hora(mm) Lluvia 24H(mm) LLuvia Total(mm)
2019-Jun-24 01:09:17 1009.700 - - - - WSW     330.48
2019-Jun-24 02:08:55 1009.700 - - - - WSW     330.48
2019-Jun-24 03:09:29 1009.200 - - - - WSW     330.48
2019-Jun-24 04:09:17 1009.000 - - - - WSW     330.48
2019-Jun-24 05:09:41 1008.700 - - - - WSW     330.48
2019-Jun-24 06:09:23 1008.300 - - - - WSW     330.48
2019-Jun-24 07:09:23 1008.400 - - - - WSW     330.48
2019-Jun-24 08:09:12 1008.400 - - - - WSW     330.48
2019-Jun-24 09:09:41 1008.300 - - - - WSW     330.48
2019-Jun-24 10:09:23 1008.200 - - - - WSW     330.48
2019-Jun-24 11:09:28 1008.100 - - - - WSW     330.48
2019-Jun-24 12:08:58 1007.900 - - - - WSW     330.48
2019-Jun-24 13:08:45 1007.800 - - - - WSW     330.48
2019-Jun-24 14:09:03 1007.600 - - - - WSW     330.48
2019-Jun-24 15:09:16 1007.200 - - - - WSW     330.48
2019-Jun-24 16:09:03 1007.100 - - - - WSW     330.48
2019-Jun-24 17:09:04 1006.700 - - - - WSW     330.48
2019-Jun-24 18:09:08 1006.500 - - - - WSW     330.48
2019-Jun-24 19:09:19 1006.800 - - - - WSW     330.48
2019-Jun-24 20:09:16 1007.300 - - - - WSW     330.48
2019-Jun-24 21:09:01 1007.800 - - - - WSW     330.48
2019-Jun-24 22:09:03 1008.700 - - - - WSW     330.48
2019-Jun-24 23:08:46 1009.500 - - - - WSW     330.48

Temperatura Máxima:    Temperatura Mínima:
Presión Máxima:1009.700 Hpa    Presión Mínima:1006.500 Hpa


Volver